Location: Newark
(35.2672°N, 80.7344°W)
Time: 15:40:43
(UTC+00:00)

A-11 Canister half - Pass Details

Date: 02 February 2020
Orbit: 1525 x 1684 km, 47.3° (Epoch: 17 February)

Event Time Altitude Azimuth Distance (km) Brightness Sun altitude
Rises 23:24:26 0° 284° (WNW) 4,675 12.7 -7.2°
Reaches altitude 10° 23:27:46 10° 292° (WNW) 3,700 11.9 -7.8°
Maximum altitude 23:36:23 40° 360° (N) 2,163 9.7 -9.5°
Enters shadow 23:44:33 12° 65° (ENE) 3,603 10.3 -11.1°
